GFSMA_sfc_wetblb_132.txt.gz
Wetbulb
67.46 69.91 71.49 70.04 70.32 70.45 70.76 71.29 70.60 70.15 70.69 69.82 70.41 68.69 67.40 65.58 66.57 67.68 67.72 73.64 76.00 76.25 76.00 76.06 76.61 76.75 77.26 77.56 78.01 78.05 77.90 77.39 76.67 76.22 75.72 75.15 74.83 75.00 75.48 75.48 74.97 74.89 74.18
70.53 71.46 70.35 70.91 70.64 69.97 69.87 69.68 69.97 70.44 68.92 69.27 69.59 68.94 67.25 67.31 67.19 68.01 69.40 69.19 76.01 76.57 76.83 76.85 77.62 78.28 77.72 77.68 77.87 78.45 78.43 77.91 77.19 76.51 75.11 74.20 75.13 74.95 75.10 75.99 75.60 74.56 74.17
69.38 69.99 71.29 70.38 70.66 73.59 73.75 72.48 72.13 71.71 70.13 70.59 69.15 70.93 70.84 71.19 70.52 70.12 70.57 70.71 71.72 74.31 74.53 76.23 77.59 77.67 78.24 78.04 79.13 78.60 78.50 77.17 74.85 72.93 72.63 72.96 73.19 73.83 74.66 75.10 75.52 74.88 74.60
69.94 70.72 69.50 69.64 73.61 71.64 72.41 72.78 71.60 70.39 70.18 69.08 68.70 70.00 71.14 71.58 71.90 72.24 72.44 71.93 71.60 70.57 71.77 73.89 76.03 77.73 77.26 78.73 79.28 78.25 77.21 75.41 73.53 71.86 71.56 72.16 72.94 73.53 74.48 75.46 75.51 74.58 74.11
71.13 69.69 67.82 70.49 72.32 71.36 70.02 72.11 72.10 71.86 69.44 69.33 69.73 70.00 70.42 69.76 69.58 72.46 71.95 70.55 69.22 68.44 70.46 72.29 73.40 73.38 76.08 78.65 78.57 77.88 76.76 75.36 73.78 72.82 72.49 72.93 74.02 75.24 76.12 75.88 75.13 74.51 74.33
67.86 66.36 71.28 71.18 71.66 72.32 72.58 71.33 72.04 73.18 72.54 71.18 72.19 69.64 68.10 68.34 69.50 69.77 70.82 67.71 68.29 67.67 69.21 70.90 71.11 71.36 74.25 78.33 77.90 77.65 76.47 75.30 73.78 72.94 73.12 74.10 75.12 75.68 75.34 74.87 74.45 74.40 74.22
68.15 71.02 71.42 69.06 71.47 70.52 71.82 72.96 73.24 72.94 71.77 70.93 68.78 68.28 67.00 67.24 68.28 70.19 69.47 64.92 66.55 66.35 67.75 70.68 70.31 70.74 72.25 75.85 76.93 77.42 76.29 75.36 74.12 73.93 74.38 74.99 75.62 75.09 74.57 74.25 74.03 74.06 73.82
68.66 71.36 72.16 70.99 67.81 69.31 68.64 71.75 73.05 72.49 71.80 70.49 68.59 65.96 62.78 65.32 66.56 68.55 68.67 66.30 66.81 66.75 67.67 70.11 70.26 70.15 70.59 74.53 76.12 76.59 75.81 75.40 74.45 74.68 75.20 75.47 74.98 74.63 74.26 73.83 73.61 73.57 72.89
72.62 71.90 73.09 69.92 63.68 66.55 66.12 71.60 73.16 72.59 67.92 68.93 66.60 65.31 61.65 59.16 63.41 65.98 67.21 67.54 66.36 67.06 67.72 69.01 69.44 70.48 69.34 71.10 73.96 74.04 74.78 75.14 74.36 74.70 75.40 75.18 74.77 74.43 74.05 73.80 73.21 72.85 72.28
69.83 71.45 73.04 70.30 67.18 69.05 70.90 72.86 74.45 71.41 66.35 66.04 67.45 68.82 64.77 63.07 59.69 59.15 65.71 66.33 67.23 66.75 68.02 69.05 69.46 69.19 68.99 70.64 73.36 74.63 74.28 74.33 74.30 74.35 75.41 74.88 74.52 73.94 73.82 73.36 72.44 72.45 71.94
71.91 71.85 71.94 72.44 72.08 70.68 70.91 72.73 72.59 71.20 65.58 64.08 64.68 67.16 66.36 65.75 64.08 61.79 59.73 61.61 64.75 67.34 68.33 68.75 68.04 68.01 68.54 69.60 71.23 72.72 74.00 73.23 73.39 74.43 75.42 74.46 74.61 74.16 73.83 73.58 72.63 71.94 71.57
70.78 71.42 72.05 72.27 72.07 69.00 69.04 72.81 72.29 72.45 64.78 66.42 67.72 65.13 67.76 66.74 65.62 63.26 62.09 62.58 62.86 65.18 67.78 68.39 67.72 68.19 68.94 68.90 72.57 74.55 73.80 72.34 72.03 72.44 73.97 74.45 74.55 74.43 73.75 73.46 72.99 72.47 71.88
69.07 69.42 71.47 71.44 71.76 71.71 72.17 72.61 72.47 71.84 71.75 70.98 68.99 68.88 69.49 68.10 66.60 65.16 64.04 63.42 62.78 65.64 66.35 66.07 67.02 67.76 69.00 69.60 70.88 74.06 73.75 71.26 70.75 70.32 71.14 72.95 74.05 74.62 74.46 73.91 73.46 72.91 72.31
69.65 70.54 71.06 71.43 72.22 72.52 72.59 72.73 71.72 71.13 71.08 71.57 71.63 72.48 71.12 70.38 67.07 66.76 65.42 63.67 62.79 63.96 64.42 63.23 66.47 69.00 69.55 70.06 72.10 73.97 71.54 70.38 69.83 68.87 68.90 70.02 71.51 73.09 73.66 74.03 73.72 73.40 72.62
72.62 71.90 72.05 72.33 71.51 72.76 72.66 72.59 71.73 70.90 72.04 72.09 70.99 71.25 71.96 72.21 69.71 68.32 68.62 66.98 65.44 62.63 64.13 67.06 65.02 68.92 72.52 73.04 73.11 72.27 72.53 70.04 69.66 68.41 67.72 68.12 68.87 70.09 71.79 72.56 72.43 72.07 71.94
72.49 72.41 72.17 72.61 72.70 71.53 72.66 71.01 71.08 71.37 71.68 71.49 71.45 70.25 70.70 71.32 72.07 71.07 70.27 70.42 69.28 66.59 63.81 67.25 68.01 68.13 70.41 74.27 73.18 72.43 73.40 71.58 69.46 68.24 67.27 66.92 67.36 68.25 69.12 70.00 70.39 70.80 70.81
70.52 71.16 72.24 71.91 71.65 71.91 71.97 70.88 70.72 71.03 70.22 69.94 70.96 70.27 70.36 70.33 69.96 71.40 70.73 69.95 69.84 69.18 65.61 67.02 68.82 71.51 70.33 71.40 71.61 72.15 73.38 70.89 69.61 68.28 67.65 66.80 66.15 66.65 67.70 67.94 68.19 68.39 69.25
71.11 70.28 70.80 71.49 71.43 72.17 73.04 72.39 70.88 71.95 70.93 69.77 70.02 70.09 70.27 72.05 70.17 70.58 70.39 69.62 69.54 69.43 67.83 65.78 67.76 70.08 70.19 70.03 71.31 71.38 72.94 74.13 70.90 69.69 67.05 66.65 65.91 65.46 65.35 65.53 65.70 65.82 66.13
71.99 72.40 72.32 71.96 71.70 72.03 71.82 72.17 71.68 71.17 71.13 71.39 72.56 72.21 71.21 69.70 70.07 70.14 69.87 69.14 68.62 69.76 69.29 67.58 67.15 69.73 71.67 71.51 71.82 71.71 71.08 71.21 73.53 70.69 66.80 65.93 65.78 65.55 64.65 63.98 63.57 62.93 62.74
72.11 72.43 72.10 71.77 71.63 71.66 72.00 71.60 72.31 71.27 71.12 71.78 71.78 72.54 71.94 71.26 69.38 69.98 70.31 69.01 68.50 68.67 68.17 67.12 67.05 67.99 68.96 70.45 70.22 70.13 69.43 70.45 70.35 73.55 72.32 70.51 70.11 68.82 65.60 63.69 63.28 63.24 61.26
71.51 72.01 72.22 72.07 71.60 71.37 69.89 68.43 69.13 70.34 69.96 70.31 71.51 71.33 69.90 70.28 69.74 69.57 70.91 69.14 68.89 68.51 67.99 67.54 66.80 66.75 67.47 68.26 68.01 69.93 68.96 69.80 69.83 71.41 71.36 71.84 72.19 72.16 72.00 69.53 67.11 65.64 62.85
71.12 71.61 71.60 70.31 70.72 67.29 63.53 65.14 67.85 70.10 71.41 69.74 69.12 69.93 67.36 66.04 67.04 67.41 67.14 67.68 68.53 67.93 66.87 67.05 67.22 66.05 66.71 68.10 69.46 69.23 68.44 67.40 66.75 71.21 70.45 70.19 71.72 70.72 72.30 72.54 66.31 64.76 62.61
70.88 69.72 69.07 67.31 63.61 62.32 60.86 62.19 65.51 70.55 69.98 68.82 68.10 70.00 65.55 63.93 65.11 68.52 68.08 66.62 64.78 64.38 66.47 67.12 66.08 66.66 67.54 68.71 68.13 67.00 67.14 67.25 67.14 70.31 69.05 67.99 69.96 68.02 71.20 70.91 65.39 64.67 62.75
69.03 67.06 64.03 61.47 61.74 61.86 58.69 59.67 63.94 70.09 68.80 68.96 65.72 63.20 60.53 59.28 60.93 66.26 67.22 65.64 62.05 61.27 61.34 62.84 62.51 62.87 62.97 63.63 65.82 68.12 68.15 68.42 68.42 69.59 66.96 61.02 67.07 66.11 69.16 70.43 65.92 65.13 63.29
65.34 62.19 61.17 59.56 58.65 56.99 56.75 60.01 66.46 66.27 63.94 62.62 62.93 59.95 58.34 57.87 59.58 61.47 59.03 57.13 56.47 58.78 61.14 61.94 62.10 62.70 63.24 63.44 63.57 66.94 65.36 64.00 63.73 65.97 67.05 62.06 62.47 65.09 66.13 68.51 68.31 64.65 61.76
61.26 60.13 59.02 58.30 56.85 55.82 55.38 55.58 64.58 61.36 57.63 56.87 55.35 55.78 57.87 56.45 55.91 57.98 55.71 54.30 55.53 55.97 59.20 59.74 59.93 59.72 60.38 61.66 62.56 63.67 64.42 62.42 62.57 61.59 63.39 61.74 62.43 63.76 63.09 66.58 67.34 65.24 59.46

GFSMA_sfc_wetblb_135.txt.gz
Wetbulb
66.35 69.04 70.10 69.46 70.02 69.73 69.62 69.81 70.08 69.92 69.16 69.58 69.73 71.06 69.70 66.77 66.32 67.82 67.65 72.62 75.19 76.05 75.91 76.33 76.86 77.72 77.38 77.49 77.90 77.81 77.83 77.09 76.60 76.07 75.77 74.85 74.36 74.96 75.27 75.26 74.98 74.56 74.78
69.72 70.18 70.24 70.51 70.28 70.08 69.58 69.11 69.51 69.83 68.33 68.50 68.37 67.21 67.19 68.12 68.60 69.07 70.09 71.37 74.34 74.50 75.22 76.32 76.81 78.00 78.48 78.52 78.24 77.72 77.60 75.63 73.45 73.01 72.81 73.28 74.64 74.69 74.60 75.19 75.07 74.46 74.26
69.85 69.68 70.06 70.04 71.95 72.86 72.99 71.84 71.05 70.87 69.41 69.92 69.32 70.74 71.54 72.28 72.63 72.17 72.21 71.83 71.21 73.67 74.79 75.62 75.79 75.95 77.42 78.97 78.20 77.66 76.30 74.13 72.67 71.64 71.95 72.41 73.52 73.94 74.32 74.70 74.64 74.44 74.24
69.32 69.57 68.54 69.67 71.98 70.54 71.34 71.27 70.99 69.41 70.04 69.04 68.73 70.15 71.00 71.99 71.77 71.47 72.02 70.67 69.72 70.45 72.08 74.37 74.72 75.12 77.06 78.70 78.75 77.57 75.72 73.95 72.88 72.43 72.58 73.03 73.69 73.96 74.42 74.47 74.54 74.64 74.27
70.91 68.43 68.51 71.17 71.71 71.40 71.66 71.90 71.41 71.00 68.66 68.85 69.71 68.66 69.00 69.21 71.02 72.36 70.74 69.98 68.66 69.32 70.50 71.99 73.15 74.34 76.78 78.26 77.81 77.38 75.89 74.09 73.42 73.61 73.94 73.99 75.40 75.54 75.37 74.95 74.60 74.05 74.12
69.25 66.19 70.49 69.85 71.65 71.85 71.90 72.00 71.84 71.78 70.41 68.90 68.20 66.94 67.29 68.84 69.95 70.02 70.23 69.33 68.44 68.12 69.74 70.05 69.91 70.73 74.09 76.72 77.23 77.28 76.20 74.36 74.29 74.69 74.36 75.39 75.42 75.37 75.10 74.68 74.36 74.17 74.14
67.53 71.25 69.22 70.82 69.37 69.39 70.08 72.84 72.80 70.73 69.33 67.42 65.53 65.28 66.08 67.34 67.63 68.64 69.87 66.95 64.77 67.22 68.92 69.87 70.03 69.87 69.81 73.65 75.41 76.47 75.89 74.55 74.95 74.89 75.22 74.86 74.85 74.73 74.58 74.29 73.87 73.50 74.13
68.38 71.66 70.60 67.89 66.37 68.23 70.88 72.49 72.56 70.67 67.81 67.47 67.36 64.89 62.59 64.95 65.75 67.30 68.01 67.41 67.00 68.18 68.20 69.37 69.43 69.55 68.47 70.08 72.55 75.77 75.09 74.71 75.09 75.40 75.11 74.54 74.11 74.17 74.09 73.74 73.50 73.24 72.73
70.41 72.19 71.59 65.79 66.47 67.33 69.25 72.07 71.06 68.73 66.53 67.14 65.73 65.06 60.11 59.96 62.59 64.86 66.24 66.67 67.09 66.80 66.95 68.84 68.99 69.66 68.61 68.84 71.19 73.70 74.47 74.72 74.92 75.32 74.77 74.40 73.94 73.56 73.59 73.40 73.04 72.44 72.74
70.24 71.69 71.99 68.85 69.27 70.41 70.81 72.88 71.65 67.93 67.20 65.24 66.20 68.06 64.11 63.15 59.38 58.72 63.23 65.13 66.13 66.34 66.96 68.21 68.26 68.56 68.45 68.69 70.74 73.22 73.87 73.89 74.76 75.30 74.82 74.22 73.81 73.36 73.26 72.63 72.14 71.64 71.49
70.43 70.48 72.02 71.32 70.74 69.94 70.65 71.74 69.38 64.99 64.80 64.16 63.27 65.68 65.53 65.06 63.24 60.30 58.65 60.38 63.73 65.82 67.07 67.45 68.06 67.45 68.46 68.68 68.37 71.82 73.72 73.09 73.91 74.94 74.93 74.47 73.97 73.75 73.20 72.68 72.11 71.37 70.86
70.18 70.77 71.05 71.31 70.72 68.33 70.57 71.96 70.92 66.21 67.13 66.70 65.95 64.98 66.20 65.53 64.14 62.25 60.33 61.16 61.97 64.40 66.24 67.56 67.45 67.47 67.81 67.80 71.11 73.70 73.87 72.66 72.23 73.31 73.87 74.11 74.27 73.26 73.06 72.95 72.61 71.91 71.22
68.35 69.15 70.53 71.14 70.59 70.13 71.31 71.93 71.46 69.96 67.58 69.20 68.34 68.43 68.44 67.43 65.97 63.86 63.01 62.07 62.04 64.83 66.17 66.31 65.98 67.32 68.65 68.63 69.91 73.34 73.84 71.71 70.91 70.75 71.87 72.74 73.46 73.79 74.00 73.40 72.75 72.07 71.77
68.29 69.19 69.59 70.65 71.25 71.50 71.20 71.91 70.91 70.95 70.85 70.77 70.99 70.96 70.54 69.07 66.20 65.48 64.77 63.60 63.45 63.35 63.96 64.39 66.35 67.91 69.78 70.45 72.48 74.24 72.07 70.51 69.84 68.90 69.11 69.94 71.36 72.75 73.10 73.65 73.58 73.31 72.38
70.46 70.33 69.98 70.92 70.42 71.32 71.58 71.66 70.59 69.93 71.18 70.94 70.51 71.27 70.91 70.81 67.93 67.43 66.60 65.97 65.13 61.89 63.18 66.64 65.68 68.19 70.39 72.52 73.37 72.39 71.84 70.80 69.24 68.37 67.79 68.07 68.70 70.44 71.72 72.11 72.03 71.76 71.46
71.38 72.80 70.99 71.25 71.05 70.90 72.07 70.84 70.42 70.42 70.56 70.77 70.38 69.07 69.99 70.57 70.32 69.96 69.76 68.76 68.15 65.96 62.20 66.30 67.62 67.97 69.99 72.60 73.36 72.17 72.99 70.85 69.20 68.28 67.25 66.91 67.61 68.32 69.35 70.53 70.64 70.46 70.50
70.17 71.34 71.20 71.10 71.56 71.13 71.09 69.28 69.74 69.88 69.31 69.58 70.07 69.28 69.49 69.81 69.10 70.36 69.58 69.11 69.09 67.73 64.56 66.22 67.81 69.96 69.80 70.45 71.57 72.06 72.85 71.10 70.31 68.14 67.76 66.67 66.20 66.53 67.45 67.96 68.17 68.87 69.64
70.66 69.75 71.05 70.91 70.82 70.99 70.81 70.05 69.58 71.18 69.52 69.12 69.03 69.73 69.16 70.78 68.92 68.96 69.24 68.26 68.14 68.37 66.80 64.73 67.02 70.03 70.21 70.68 71.48 71.79 72.14 73.39 71.79 69.45 67.40 66.20 65.58 65.25 65.07 65.30 65.29 65.66 65.79
71.33 70.36 70.23 70.19 70.63 70.88 71.39 72.27 71.48 70.32 70.20 69.95 70.61 70.97 70.83 69.18 68.34 69.10 68.85 67.98 67.58 69.43 67.47 65.82 65.91 68.37 69.92 70.89 71.23 72.61 70.53 70.53 72.28 71.54 69.81 68.42 66.26 65.36 64.60 63.48 62.70 62.79 62.56
71.05 71.20 71.13 71.29 71.22 71.29 71.34 71.34 71.77 70.39 70.37 70.91 71.18 71.94 71.87 69.65 69.00 68.81 69.10 68.14 67.42 67.63 66.89 66.17 66.19 67.02 67.58 69.49 69.18 68.55 68.33 69.36 69.74 72.83 71.64 69.75 69.44 68.74 67.13 65.04 63.75 62.67 60.14
71.31 71.28 70.93 70.97 71.03 71.35 70.47 69.84 70.19 70.58 70.18 69.76 70.52 69.76 69.62 69.94 69.17 69.65 69.98 69.13 67.83 67.32 66.91 66.44 65.76 65.98 66.52 67.25 67.34 68.96 67.47 67.90 68.53 70.25 70.33 70.80 70.49 70.50 70.83 68.33 67.54 66.75 64.21
69.83 70.08 70.76 70.11 69.91 69.15 64.01 65.86 68.47 69.50 70.00 69.69 68.96 67.63 66.60 67.28 68.28 67.02 67.07 67.07 67.52 67.20 66.15 65.85 65.60 64.86 65.14 66.77 68.30 67.51 66.54 66.36 64.85 69.88 68.62 67.42 69.23 67.38 70.26 68.49 65.72 63.43 63.17
68.85 69.29 69.03 68.35 64.94 62.86 62.13 63.28 65.33 68.99 69.52 69.39 69.75 68.31 66.68 66.46 67.02 69.12 64.67 63.50 62.82 63.36 66.26 66.69 65.25 65.49 65.67 67.18 63.64 64.65 65.54 66.27 65.85 67.19 65.86 61.50 66.58 64.57 69.47 68.60 63.30 62.01 58.97
67.81 66.18 63.40 62.46 61.00 60.91 60.93 61.45 63.48 69.99 69.84 68.80 68.98 66.49 62.63 62.60 63.51 67.72 63.79 59.39 59.72 60.58 60.32 61.30 60.80 61.48 61.86 62.47 62.97 65.26 66.48 66.79 67.00 68.71 64.09 58.55 63.06 63.33 67.20 69.51 63.27 60.67 58.17
64.25 62.82 61.63 60.18 58.28 55.83 56.91 60.91 64.07 67.10 66.07 64.97 63.96 61.34 60.86 62.31 60.00 61.40 58.83 57.49 58.27 59.11 60.84 60.32 60.32 60.02 60.55 61.21 63.27 64.46 62.86 62.49 61.69 64.61 60.82 60.25 60.18 62.85 64.14 68.01 64.25 59.76 57.52
59.84 59.17 57.61 56.91 56.37 55.95 54.18 57.01 63.67 63.92 60.95 59.69 60.55 58.02 57.59 57.57 55.88 55.20 54.61 56.77 56.52 56.48 57.89 57.95 57.73 58.61 58.34 58.80 59.82 59.37 61.35 60.07 60.15 55.61 57.37 57.92 58.78 61.63 61.25 64.22 63.37 57.97 57.62

GFSMA_sfc_wetblb_138.txt.gz
Wetbulb
68.52 70.19 71.26 71.95 72.05 72.36 71.81 71.90 71.99 72.12 71.09 70.44 70.39 71.81 69.99 68.29 68.28 70.08 70.69 72.77 74.74 75.03 75.23 76.01 76.94 77.47 77.92 78.41 78.44 77.76 76.69 74.82 73.30 72.97 73.98 74.57 74.20 74.76 75.36 75.15 75.11 74.65 74.69
71.50 71.51 71.53 72.25 72.88 73.04 73.19 72.04 72.91 71.57 70.13 71.13 71.25 70.45 70.40 69.92 69.87 70.64 71.98 75.02 74.13 74.31 75.35 75.72 76.33 77.09 78.15 79.11 78.36 76.82 75.27 73.52 72.59 71.81 72.44 73.56 74.62 74.54 74.79 75.10 75.36 74.66 73.78
71.21 71.68 70.98 71.45 72.73 72.38 73.56 74.26 73.31 72.22 70.96 71.58 71.97 72.59 73.09 73.36 73.70 72.22 72.87 72.83 73.56 74.22 75.22 75.85 76.00 77.26 78.66 78.28 77.68 76.44 74.51 73.15 72.62 72.46 72.30 72.92 73.39 74.03 73.78 74.51 75.04 74.80 74.31
71.64 71.13 70.56 72.19 73.07 73.09 73.46 73.75 73.23 71.31 70.44 70.72 71.09 71.83 72.33 72.88 72.62 73.04 72.82 71.16 71.23 71.49 72.27 74.78 76.01 77.44 78.24 77.70 77.55 76.35 74.76 73.56 73.71 73.56 73.36 73.44 74.08 74.06 74.03 73.75 74.95 74.83 74.23
71.41 69.81 71.67 72.53 73.78 73.77 73.71 73.33 72.92 71.62 70.64 70.46 69.87 69.99 70.55 71.29 71.80 72.47 71.11 70.77 69.81 69.80 71.48 71.90 73.34 76.74 77.69 77.86 76.88 76.38 75.14 74.71 74.43 74.16 74.51 75.11 75.43 75.30 74.73 75.08 74.81 74.21 73.76
70.52 71.90 71.48 72.02 72.67 73.36 74.01 73.87 72.05 70.72 69.90 69.35 68.81 68.40 69.28 70.26 70.91 71.07 70.82 70.46 69.71 69.33 70.00 71.27 71.83 72.44 74.98 75.70 76.38 75.95 75.24 75.07 74.73 74.71 75.05 74.94 75.01 75.26 74.87 74.27 74.27 74.08 73.81
70.82 71.78 72.36 70.88 71.67 72.36 73.53 74.50 72.96 69.79 68.22 69.05 68.44 68.48 69.07 69.31 69.59 69.85 70.13 68.45 68.59 69.40 70.04 71.83 71.67 71.35 71.39 73.41 75.23 75.56 75.28 74.89 74.93 74.86 74.72 74.43 74.55 74.44 74.20 73.73 73.84 73.92 74.12
71.04 73.33 72.41 68.83 70.66 72.58 73.60 73.64 73.55 69.96 69.05 69.35 69.07 67.27 66.16 68.85 68.80 68.91 69.57 68.92 69.27 69.65 69.14 70.12 70.57 71.13 70.64 72.07 73.61 75.36 74.66 74.86 74.93 74.88 74.55 74.11 73.91 74.04 73.71 73.66 73.42 73.18 72.60
70.44 73.73 71.30 70.13 71.07 72.28 73.04 73.07 72.07 70.40 68.61 69.25 68.22 68.70 65.24 64.34 65.24 67.78 68.05 68.61 68.91 68.97 68.70 70.31 70.91 70.86 71.11 71.51 71.95 73.93 74.23 74.46 74.82 74.88 74.36 73.85 73.51 73.46 73.21 73.15 72.97 72.96 73.22
72.84 72.14 72.79 71.57 72.72 72.98 73.92 74.44 71.97 71.49 70.28 68.13 68.60 67.89 66.53 65.87 63.69 62.38 67.21 67.45 67.42 67.72 68.86 69.64 70.61 70.91 71.73 71.64 71.40 72.74 73.51 73.52 75.17 74.40 74.28 73.78 73.35 73.15 72.90 72.45 71.69 71.73 72.13
72.17 71.68 73.48 72.86 72.96 72.79 73.83 74.01 69.58 69.10 68.55 67.88 67.69 69.00 68.56 66.87 65.93 64.67 64.14 63.94 67.35 68.89 69.67 70.08 71.59 71.80 71.01 70.63 70.67 72.77 73.48 72.67 73.46 74.98 74.60 73.83 73.51 72.99 72.64 72.42 71.51 70.62 70.91
71.79 72.39 72.94 73.46 73.32 71.95 73.42 73.88 71.39 70.89 70.71 69.44 68.42 67.96 69.35 69.15 68.43 66.77 65.90 65.66 65.50 67.76 69.26 71.30 71.10 71.16 71.18 71.13 72.09 73.54 73.46 72.20 71.88 73.54 73.40 74.08 73.53 72.93 72.70 72.29 71.77 71.28 70.69
70.18 71.49 72.38 72.61 73.28 72.93 73.05 73.81 73.67 72.30 71.02 71.67 71.55 71.38 70.95 70.28 68.96 67.71 67.33 66.38 66.71 69.00 69.95 71.20 70.76 71.71 73.03 73.24 73.10 73.81 73.31 71.26 70.71 70.66 72.05 72.48 73.25 73.73 73.51 73.06 72.61 71.64 70.98
69.94 71.75 71.59 72.51 73.18 73.38 73.73 73.70 73.10 73.17 73.49 73.12 73.12 73.32 72.97 71.52 68.87 68.86 69.00 68.36 69.02 67.81 68.50 69.81 71.47 72.22 74.02 74.81 75.08 73.73 73.79 70.65 70.04 69.15 69.45 71.02 72.07 72.74 73.03 73.48 73.26 72.78 72.22
70.83 71.44 71.42 71.98 72.63 73.33 73.55 73.46 72.90 73.11 73.58 73.70 73.03 73.49 73.12 72.68 70.01 70.09 69.80 69.68 69.61 67.48 67.82 70.74 70.65 73.29 73.96 75.56 74.95 75.55 75.01 70.47 69.59 68.72 68.01 68.32 69.49 71.19 71.63 72.09 71.99 71.76 71.31
71.57 72.98 72.61 71.55 72.50 72.63 73.47 73.81 73.16 72.86 73.30 73.58 73.01 72.59 73.06 73.35 72.94 72.05 72.45 71.24 69.84 68.53 66.94 69.54 72.13 72.44 73.29 74.20 75.08 76.03 73.69 70.91 69.13 68.12 67.41 67.00 67.58 68.39 69.51 70.49 70.51 70.37 70.40
72.19 71.96 73.02 71.70 72.57 72.60 73.13 73.12 72.60 72.75 72.29 72.92 73.17 72.46 72.24 72.71 72.47 72.92 72.47 71.90 71.28 69.98 68.27 70.44 71.55 73.21 73.88 74.43 74.67 75.56 75.03 74.97 73.67 68.01 67.65 66.78 66.15 66.71 67.47 67.74 68.03 69.00 69.59
72.40 71.96 72.50 72.64 72.34 73.05 72.88 72.60 72.16 72.77 71.92 71.45 71.47 71.86 72.06 72.13 72.28 72.56 71.75 72.04 71.99 71.52 70.50 70.02 71.27 72.96 73.68 74.61 74.46 74.16 73.64 74.14 75.27 70.18 67.25 66.42 65.79 65.38 64.88 64.89 65.20 65.43 65.97
72.39 72.13 71.41 71.34 71.88 71.83 72.75 72.87 72.23 71.98 72.78 72.26 72.29 72.61 72.54 71.84 71.75 72.06 71.76 70.98 71.40 71.77 70.79 69.55 69.67 71.87 72.69 72.96 73.59 74.56 73.36 73.86 74.55 71.31 68.91 67.85 66.96 66.46 65.29 64.07 62.60 61.97 62.01
72.54 72.74 71.67 71.81 72.08 72.56 72.92 73.05 73.57 72.90 72.44 72.76 73.01 72.81 73.34 72.56 72.24 72.68 71.82 71.79 70.79 70.77 70.71 69.52 69.75 70.61 71.58 73.00 72.89 72.45 71.24 72.62 72.03 72.82 71.58 69.28 68.60 68.23 66.31 64.17 64.25 64.42 60.39
72.48 72.65 71.65 72.30 72.59 72.32 72.31 72.43 72.98 72.77 72.60 72.48 72.40 72.20 71.95 71.41 69.22 70.65 72.59 72.31 71.49 70.86 70.58 70.22 69.86 69.86 70.37 70.98 71.45 72.09 71.02 71.41 72.46 70.07 71.81 71.20 71.71 71.68 69.98 65.58 64.69 62.85 61.62
71.01 71.36 71.53 71.82 70.56 71.16 64.41 65.68 69.49 71.85 72.44 71.97 71.71 70.52 69.59 68.75 69.18 66.93 66.98 66.57 69.92 71.09 70.76 69.66 69.61 69.42 69.56 70.93 70.92 70.38 70.33 70.00 69.07 69.08 70.64 67.88 71.80 68.37 67.09 65.73 60.88 59.40 58.54
69.72 68.91 68.03 68.03 67.02 64.69 61.56 64.22 65.61 67.49 71.42 71.79 71.17 69.83 68.91 68.20 68.59 69.46 64.02 62.99 62.82 62.75 65.77 70.76 69.79 69.59 69.88 71.15 67.12 68.52 70.20 70.20 66.29 63.66 68.19 64.96 68.67 67.86 65.16 62.91 59.89 58.22 57.11
67.71 67.22 65.01 64.00 63.30 62.41 58.47 62.09 64.38 65.48 69.95 69.72 69.82 68.24 67.11 65.75 67.16 68.06 65.23 64.46 63.59 64.08 64.85 64.85 65.22 64.64 65.95 66.38 66.90 69.33 70.53 70.76 70.61 62.33 63.28 63.45 66.30 67.16 67.48 61.72 59.93 58.56 56.47
65.65 64.78 63.41 62.04 60.73 59.86 55.97 59.05 63.98 68.21 67.04 65.44 64.70 63.65 62.95 63.94 61.33 64.74 63.94 62.99 62.05 61.65 59.96 59.62 59.19 59.01 59.38 60.02 63.31 67.88 66.84 66.25 66.62 63.45 57.36 61.63 63.20 65.95 67.27 61.68 61.63 58.49 55.46
59.51 58.84 57.54 57.32 56.66 56.94 55.49 56.31 64.17 65.05 62.05 60.55 61.01 60.70 58.04 58.49 56.40 57.85 61.63 61.63 60.39 59.87 59.88 59.37 59.01 59.07 59.27 59.46 59.34 61.39 63.91 62.73 62.90 57.80 56.99 58.36 57.58 61.55 64.23 66.15 59.04 59.18 57.46

GFSMA_sfc_wetblb_141.txt.gz
Wetbulb
74.82 75.57 76.32 76.78 76.98 77.66 76.16 75.97 75.69 74.77 74.21 73.62 75.82 75.25 73.63 72.80 72.16 73.90 75.57 73.60 75.24 75.60 76.17 76.95 77.35 77.71 78.61 78.40 77.25 75.97 74.60 73.37 72.61 72.68 72.78 74.65 74.21 74.65 75.94 75.71 74.82 74.79 75.32
75.95 75.82 76.25 76.44 76.97 77.50 78.03 77.21 76.68 75.37 75.58 75.28 73.88 74.16 74.16 74.57 74.49 74.42 73.81 76.35 75.10 75.54 76.13 76.72 76.90 77.73 78.44 77.50 76.55 75.00 74.22 73.31 72.78 72.35 73.21 74.47 74.60 74.21 74.45 75.06 75.13 74.86 74.39
76.24 75.87 75.99 76.55 76.73 77.57 78.27 78.33 76.91 75.85 75.65 75.80 75.88 76.78 77.17 76.73 76.73 75.71 75.53 74.59 74.80 74.60 75.02 76.37 77.17 78.21 77.99 77.09 76.29 75.11 74.54 74.22 73.82 73.59 73.17 72.96 73.36 73.99 73.68 74.07 74.80 74.93 73.96
75.75 76.00 76.26 76.56 77.86 78.44 78.55 78.19 76.01 74.61 75.13 75.88 76.13 76.21 75.91 76.01 75.82 75.98 73.69 72.92 72.34 74.49 75.21 74.36 75.49 77.85 77.64 76.57 76.24 75.42 75.10 74.71 74.57 74.67 74.52 74.13 74.44 74.07 73.75 73.54 74.13 74.34 74.34
75.24 76.18 75.93 76.82 78.39 78.35 77.81 77.68 76.27 75.66 75.43 75.69 75.20 75.75 76.01 76.27 75.07 74.23 72.70 72.32 72.55 72.94 74.15 73.69 73.15 74.94 76.36 76.52 76.11 75.70 75.21 75.26 74.92 74.61 75.02 75.24 75.22 75.04 74.17 74.44 74.37 73.87 73.07
74.37 76.17 76.37 76.79 77.55 78.18 77.98 76.93 76.55 75.68 75.93 75.27 73.61 74.08 75.00 75.91 76.22 75.40 74.11 73.12 70.96 70.21 73.28 74.08 74.41 74.06 74.18 76.02 75.66 75.51 75.46 75.75 75.04 74.69 74.84 74.84 74.89 74.94 74.54 74.51 73.64 73.37 73.07
76.32 76.69 76.27 75.91 77.27 77.78 78.05 76.99 75.59 74.66 73.62 74.73 72.95 74.00 73.94 74.13 74.30 73.98 73.01 72.14 71.08 70.91 74.01 73.39 74.44 73.87 75.31 74.97 75.77 75.06 75.71 75.71 74.82 74.69 74.41 74.18 74.27 74.37 74.20 73.90 73.91 73.49 73.05
75.93 77.40 75.43 75.11 76.52 77.61 77.33 78.19 76.57 74.66 74.07 74.04 72.89 72.91 70.96 72.85 72.75 72.77 72.22 72.02 72.85 73.39 72.79 72.86 73.35 74.08 75.41 75.97 75.66 74.71 75.17 75.62 74.86 74.31 74.19 73.91 73.66 73.94 73.86 73.68 73.51 73.62 72.98
74.81 77.41 75.05 76.15 76.94 78.02 76.35 76.04 76.50 74.59 73.83 72.79 72.85 72.12 69.08 66.87 69.63 71.56 71.20 72.58 72.17 73.42 73.67 74.11 74.34 74.99 75.28 75.66 76.00 75.13 74.42 75.46 74.84 74.41 73.94 73.82 73.58 73.28 73.01 73.12 73.23 73.30 73.08
76.01 76.73 76.95 76.77 77.63 77.79 77.97 76.39 74.54 75.17 73.89 71.78 72.56 71.54 71.29 70.26 67.51 67.66 70.44 71.62 72.07 72.75 74.19 75.14 75.27 75.16 75.30 75.65 75.23 73.92 73.59 75.02 74.74 74.36 73.89 73.74 73.57 73.34 72.65 72.38 72.07 72.02 72.30
76.52 74.81 77.07 77.07 77.29 77.26 78.53 77.21 73.78 74.35 72.88 71.95 71.34 71.89 72.81 71.48 71.64 69.83 67.35 68.85 71.99 73.34 73.94 74.56 75.07 75.96 76.13 76.26 76.65 74.77 72.95 73.87 74.83 74.66 74.09 73.79 73.52 73.05 72.95 72.11 71.02 71.29 71.54
75.60 76.13 75.94 77.41 77.91 76.84 77.83 78.09 76.07 75.25 76.12 75.13 74.58 73.40 72.76 72.30 71.74 71.09 71.24 71.58 70.92 73.01 74.51 75.31 75.34 75.94 77.20 77.14 75.38 74.44 73.15 72.76 73.57 73.80 74.13 74.38 73.82 73.44 73.09 72.33 71.72 71.21 70.84
73.57 75.58 76.52 76.57 78.27 77.41 76.96 78.49 78.45 77.85 76.74 76.27 76.36 75.02 75.43 75.01 73.96 72.73 72.07 72.24 71.51 73.41 73.85 75.34 75.17 76.71 77.09 78.46 77.15 74.79 73.37 71.76 71.59 72.84 72.60 73.28 73.49 73.92 73.84 73.24 72.69 71.87 71.13
74.17 75.86 76.35 76.51 76.76 77.16 77.28 78.19 77.33 76.88 78.05 77.46 76.68 77.29 76.79 75.99 74.56 74.09 72.72 71.70 71.21 71.63 73.98 73.65 76.21 76.46 77.80 77.37 75.99 74.07 75.74 70.91 70.53 70.08 70.75 71.70 72.52 73.23 73.48 73.83 73.64 72.97 72.43
74.76 75.29 75.44 75.96 76.40 76.57 77.24 77.26 76.57 76.63 77.27 77.91 77.61 77.32 76.93 76.86 75.70 75.42 74.82 73.91 72.21 69.16 70.13 73.96 73.89 76.83 77.34 77.83 76.10 77.80 77.24 70.05 70.25 69.49 68.99 69.08 70.42 71.95 72.53 72.57 72.28 72.00 71.75
75.87 75.57 75.74 75.62 75.71 76.21 76.77 77.46 76.68 76.82 76.57 76.59 78.11 77.03 76.63 77.13 76.66 76.74 76.47 76.48 74.61 73.16 69.88 74.79 74.81 76.10 77.43 76.85 76.55 78.00 76.53 72.84 70.22 69.26 68.37 67.79 68.17 68.97 70.22 71.33 71.12 70.86 70.90
76.38 75.90 76.42 76.71 76.54 76.02 76.32 76.84 77.29 76.71 76.36 76.31 77.07 76.78 76.43 76.76 75.51 77.31 77.18 76.44 75.67 74.62 71.53 74.58 76.25 77.00 77.02 76.66 76.86 77.43 77.21 77.77 76.16 69.03 68.57 67.73 66.87 67.08 67.68 68.24 68.42 69.30 70.02
76.62 76.50 76.42 76.36 76.32 76.17 76.54 76.39 75.80 75.32 75.54 75.13 75.18 75.56 75.55 75.15 76.28 76.75 75.97 76.02 75.51 76.02 73.49 72.87 76.30 76.10 76.26 77.20 76.90 77.04 75.97 76.58 77.17 69.25 67.61 67.28 66.81 66.49 65.56 65.05 64.89 65.35 66.09
76.06 76.12 75.86 75.86 76.36 76.09 75.80 76.26 76.02 75.62 75.29 75.34 75.38 75.35 75.03 75.60 76.04 76.38 76.02 74.89 74.99 75.27 75.12 72.97 72.79 75.73 76.18 75.99 76.25 76.43 76.72 76.79 76.17 70.20 67.63 66.94 65.58 64.58 63.54 63.07 63.32 61.90 61.26
75.72 75.78 76.17 75.69 75.52 75.82 75.92 75.81 76.05 76.04 75.68 75.05 75.58 75.24 75.79 75.02 75.15 76.02 76.00 76.16 75.46 74.36 74.12 72.39 72.33 73.65 74.91 76.74 76.72 74.71 73.67 75.09 73.87 74.21 70.85 69.81 66.88 65.69 63.80 63.35 63.02 62.07 60.32
75.14 75.76 75.51 74.87 75.21 75.52 74.91 75.11 75.95 75.71 75.79 75.07 75.37 75.61 76.18 73.48 69.64 71.42 77.20 76.84 76.24 75.16 72.92 73.70 72.54 72.69 73.02 73.64 74.42 74.84 74.02 74.48 71.70 72.80 72.39 73.27 70.47 68.45 65.52 62.61 62.70 59.47 58.11
75.64 74.71 74.24 74.81 74.56 72.54 63.40 64.87 68.02 72.73 74.84 75.48 75.17 75.37 75.53 71.08 71.82 67.32 67.70 68.53 72.90 75.77 74.94 74.79 72.18 71.32 73.15 73.97 73.97 71.85 73.84 72.21 71.01 69.87 71.55 71.46 68.94 64.76 63.38 60.91 58.57 57.99 57.02
74.79 74.51 73.39 73.20 72.16 69.06 61.32 63.42 64.88 68.31 70.00 73.35 74.40 74.61 72.90 72.39 71.18 73.88 64.56 64.43 64.03 63.81 66.27 75.44 74.34 73.27 73.19 74.22 72.63 71.72 73.87 70.90 67.22 65.95 70.18 67.75 66.39 65.20 64.50 61.11 57.34 56.30 55.55
71.39 72.29 71.28 70.61 70.47 65.23 57.96 59.55 62.79 69.05 67.82 70.60 72.28 72.90 71.23 68.70 68.94 68.83 68.15 68.16 68.97 69.45 69.60 70.41 70.42 69.45 70.58 71.89 71.17 74.27 74.06 71.95 68.50 65.45 67.06 63.61 69.70 63.18 62.51 59.64 56.85 55.31 54.25
67.79 68.72 68.05 68.36 67.91 67.61 56.02 56.60 63.25 70.26 68.54 67.79 66.78 64.40 66.29 66.74 62.30 64.23 66.51 65.55 64.96 62.72 59.43 59.02 59.20 59.47 59.34 60.17 65.30 72.02 70.03 71.76 69.77 64.77 62.58 66.27 65.89 65.98 63.58 64.46 61.57 54.63 53.37
62.38 63.69 61.74 61.41 56.28 61.15 54.08 55.00 61.80 68.91 67.96 65.13 64.50 61.87 57.30 57.80 56.48 60.27 66.62 65.56 63.70 63.53 63.52 63.69 63.72 62.72 62.78 61.66 60.09 64.96 66.89 68.33 67.54 63.05 59.48 63.01 63.90 64.34 65.76 62.91 62.89 62.28 59.72

GFSMA_sfc_wetblb_147.txt.gz
Wetbulb
76.97 77.04 75.08 77.31 80.38 76.21 75.90 75.81 76.15 76.09 75.81 75.79 75.86 75.86 75.44 76.09 76.79 76.87 77.79 76.74 75.94 76.37 77.43 77.94 78.55 78.11 77.51 76.86 75.81 74.90 74.87 74.60 74.00 73.87 74.47 74.46 75.46 76.30 76.83 76.44 76.21 75.79 75.81
78.93 76.27 75.23 76.94 76.23 76.91 76.17 76.69 77.85 76.67 75.95 76.03 76.04 76.82 77.44 77.83 78.43 78.16 77.81 77.27 75.91 76.85 77.55 78.39 78.81 77.83 77.03 76.75 75.82 75.18 75.41 75.63 75.40 74.03 73.59 74.90 74.47 75.16 76.00 76.40 76.21 75.88 75.57
78.24 80.61 77.19 78.40 79.26 78.11 79.07 77.66 77.26 77.02 75.85 76.23 76.26 77.43 77.76 78.17 78.17 78.48 76.58 76.52 75.58 76.35 76.54 76.79 77.40 77.48 76.81 76.31 75.85 75.34 75.59 75.69 75.70 75.22 74.03 73.04 74.20 74.58 75.05 75.82 76.11 76.04 75.53
79.37 80.09 77.60 78.96 78.56 78.28 76.53 75.61 74.91 74.86 74.90 75.30 76.50 77.25 77.36 78.01 77.75 77.53 75.97 75.59 74.05 76.45 75.90 75.43 75.31 76.56 76.39 76.24 75.90 76.05 76.07 75.10 75.51 75.63 75.55 74.84 74.27 74.24 74.64 75.22 76.34 75.90 75.41
78.48 79.18 76.88 78.23 77.86 77.22 76.79 75.80 75.05 76.01 74.15 74.90 75.12 75.85 77.61 77.64 76.75 76.37 75.09 75.92 74.71 74.55 76.15 74.66 75.72 76.38 75.94 75.90 76.02 76.34 75.26 74.59 74.92 74.93 74.88 75.53 74.98 74.21 74.64 75.74 75.75 75.03 74.65
78.19 79.66 77.75 79.24 77.62 76.61 76.96 77.89 79.44 77.50 76.64 76.29 74.74 75.40 76.88 77.06 77.02 76.38 75.85 74.94 74.21 73.67 75.30 75.62 77.62 76.66 76.30 75.28 76.07 75.67 74.70 74.34 74.44 74.38 74.31 74.41 74.33 74.46 74.88 75.10 74.99 74.85 74.45
77.96 79.22 77.15 77.94 79.22 77.81 79.19 79.23 78.12 77.44 75.95 77.63 75.73 74.01 75.64 76.37 75.88 74.97 73.91 73.77 74.21 74.54 75.74 76.14 76.92 77.11 76.05 75.51 75.75 75.90 75.08 74.54 74.46 74.13 74.06 74.16 74.35 74.49 74.54 74.17 73.26 73.37 73.38
78.29 78.13 78.96 77.26 79.67 77.87 79.00 79.03 79.25 76.36 76.15 76.37 73.64 73.62 70.40 71.23 74.00 73.38 74.30 74.05 75.13 74.66 74.19 76.70 77.16 78.02 77.19 76.23 75.82 75.45 75.24 74.74 74.48 74.25 73.96 73.68 74.05 74.21 74.09 73.67 73.33 73.98 74.09
77.15 78.48 78.20 78.86 78.66 79.38 76.83 77.96 77.84 78.42 74.24 76.21 76.37 72.15 69.04 67.98 71.37 73.37 73.33 73.33 74.54 74.14 76.05 76.66 76.71 77.72 77.63 77.08 75.93 75.48 75.09 75.17 74.33 74.24 73.98 73.54 73.56 73.75 73.68 73.59 73.73 73.61 73.54
76.62 77.60 77.87 78.17 78.67 77.86 78.38 78.12 77.52 77.82 77.71 74.04 74.67 74.59 75.25 74.61 70.08 68.15 72.01 73.43 74.94 75.61 76.91 75.18 76.51 77.54 78.31 77.18 74.46 75.57 75.20 75.23 74.57 74.29 73.92 73.56 73.36 73.14 72.77 72.39 72.12 72.15 72.39
77.14 76.28 77.44 77.72 78.10 77.56 78.36 78.13 78.32 78.84 78.06 76.18 74.90 73.86 76.49 74.61 75.38 71.83 65.52 71.56 74.17 74.97 75.48 75.44 75.69 74.11 76.49 77.59 76.21 74.48 75.18 75.57 74.81 74.53 73.95 73.78 73.35 72.85 72.35 71.78 71.89 72.37 72.62
75.84 76.90 76.59 77.60 77.88 78.26 77.81 77.76 78.39 78.82 78.40 78.01 76.40 77.38 74.50 72.91 73.67 71.35 69.87 70.92 68.03 73.39 75.18 74.86 76.18 69.43 71.09 76.78 75.25 74.63 75.05 75.06 75.06 74.84 74.21 73.80 73.42 72.84 72.48 72.08 71.92 71.85 71.99
74.36 77.49 77.48 77.33 76.47 77.94 77.35 78.06 78.48 77.75 78.21 76.92 77.66 75.89 76.18 76.24 74.97 73.89 73.34 71.33 70.46 69.64 73.03 73.55 74.46 74.29 74.10 77.13 77.07 75.98 74.57 74.28 73.99 73.78 74.09 74.05 73.87 73.66 73.18 72.41 72.13 71.61 71.67
74.33 78.55 77.09 77.06 77.43 77.36 77.41 78.06 77.11 76.72 79.97 77.33 76.76 77.94 75.64 76.18 75.45 76.97 73.80 72.49 69.76 69.30 70.60 71.00 75.02 76.75 74.54 77.16 76.80 76.56 73.29 72.87 73.31 73.12 73.71 73.67 73.50 73.93 73.91 73.83 73.25 72.52 71.88
74.97 76.33 76.03 76.93 77.45 77.50 77.69 77.94 76.21 76.76 77.12 77.67 76.96 77.78 76.70 75.22 74.70 74.73 75.04 73.30 70.63 67.47 68.43 70.25 73.04 74.51 69.25 72.44 77.36 78.09 77.48 70.74 71.57 72.25 72.95 73.08 72.87 73.40 73.57 73.96 73.82 73.07 72.80
76.85 77.25 77.16 77.58 77.08 77.63 78.06 78.47 77.61 78.93 77.02 75.78 76.03 77.66 77.30 75.87 76.09 74.01 73.92 73.83 72.62 74.56 68.50 71.45 74.69 76.63 75.83 74.69 77.84 78.65 75.37 72.58 70.74 70.87 70.13 69.44 69.39 70.15 71.19 72.77 72.92 72.70 72.25
77.11 76.98 77.26 77.78 77.15 78.22 77.78 78.35 78.37 77.43 76.39 76.45 76.56 76.13 76.45 77.62 74.28 74.42 74.85 73.89 74.93 73.60 71.95 72.53 71.73 77.55 77.91 78.04 78.26 78.88 73.77 74.09 72.22 68.47 67.94 67.40 67.06 67.31 67.44 67.40 68.22 69.71 71.41
77.38 77.89 77.06 77.16 77.11 76.96 78.32 76.91 76.29 76.20 76.80 76.03 76.03 76.02 75.42 74.61 78.40 79.27 74.99 77.49 76.44 76.11 71.77 75.10 75.30 73.86 76.42 77.07 78.29 78.67 76.82 75.66 72.89 66.07 65.39 64.36 64.19 63.22 62.91 62.96 63.11 63.50 65.56
77.18 77.01 77.30 77.00 76.75 77.00 76.47 77.14 77.19 76.87 76.40 75.67 75.53 75.85 75.69 75.77 77.13 75.75 76.07 75.21 74.82 73.16 76.15 73.04 73.86 75.37 75.58 76.15 76.75 77.29 77.96 76.37 70.49 66.10 63.93 62.48 61.74 61.06 60.53 59.94 59.16 59.08 60.46
76.78 78.13 77.36 77.26 76.97 76.62 76.73 75.97 76.42 76.58 76.42 75.63 77.43 75.36 76.20 75.64 76.12 76.09 75.74 76.49 76.76 74.87 73.36 73.43 71.86 74.50 74.06 77.17 74.86 72.96 74.52 72.27 71.65 71.89 68.62 66.37 63.87 62.55 61.26 59.82 59.91 58.97 57.29
77.29 77.10 77.64 77.38 77.10 76.59 75.55 77.14 76.48 76.54 76.36 75.99 75.60 75.65 76.31 74.75 70.70 71.61 73.55 77.13 77.63 74.93 72.42 71.93 70.79 71.14 72.44 71.37 72.55 72.79 73.15 74.18 75.46 74.12 67.82 66.10 68.80 66.11 63.71 61.28 61.89 58.50 57.74
76.53 76.89 76.70 76.68 75.92 72.97 65.55 66.41 70.15 76.54 76.40 76.52 75.55 76.26 76.50 74.05 72.84 69.17 69.52 69.83 71.13 75.29 74.99 72.31 71.37 74.95 75.53 74.52 74.71 73.19 72.60 74.78 70.96 74.72 75.50 70.00 68.93 63.76 62.17 59.88 56.62 56.05 56.06
74.02 75.52 76.06 75.95 75.27 68.36 60.45 61.63 65.09 73.14 75.11 76.15 76.63 76.53 75.23 74.90 74.45 75.59 67.82 66.19 66.77 67.11 68.62 72.66 74.16 75.41 75.05 76.35 76.81 75.17 75.37 74.50 74.39 73.70 73.44 68.41 71.74 65.82 62.71 57.74 55.15 54.94 54.37
71.48 71.14 71.98 73.80 72.88 64.66 58.21 58.81 61.58 69.75 75.43 75.40 74.96 75.45 75.63 74.58 71.94 73.88 74.99 74.24 70.94 68.24 68.59 71.33 70.28 67.67 69.81 71.46 74.80 75.87 75.56 74.65 72.86 70.61 71.90 68.91 70.20 66.48 62.83 57.94 55.15 55.26 54.24
66.47 66.81 66.33 64.35 64.66 65.67 57.82 56.80 61.47 72.13 73.36 72.49 72.94 73.74 73.15 73.85 64.69 65.45 70.91 68.35 64.42 60.60 60.06 59.93 60.11 60.50 61.20 62.09 65.28 73.86 74.18 72.70 70.21 64.81 64.73 67.06 69.11 68.43 67.45 63.57 58.54 55.66 53.99
65.14 63.92 61.36 62.45 58.29 61.65 55.94 55.38 58.40 68.19 73.35 71.42 69.75 68.05 58.12 58.75 59.33 61.71 71.49 69.49 66.06 63.71 63.16 61.96 62.15 62.31 64.91 63.29 63.57 67.05 66.33 70.95 71.20 65.28 61.63 64.21 66.71 66.57 64.90 68.02 64.16 58.69 57.40